Change the Weather History Date:

Tuesday, September 18, 2012

  Actual Average Record
Temperature  
Mean Temperature 85 °F 84 °F  
Max Temperature 89 °F 90 °F 96 °F (1994)
Min Temperature 80 °F 78 °F 71 °F (1972)
Degree Days  
Heating Degree Days 0 0  
Month to date heating degree days 0 0  
Since 1 July heating degree days 0 0  
Cooling Degree Days 20 19  
Month to date cooling degree days 342 342  
Year to date cooling degree days 4093 4333  
Growing Degree Days 34 (Base 50)    
Moisture  
Dew Point 79 °F    
Average Humidity 88    
Maximum Humidity 100    
Minimum Humidity 75    
Precipitation  
Precipitation 0.03 in 0.18 in 2.14 in (1960)
Month to date precipitation 0.58 3.22  
Year to date precipitation 22.81 23.37  
Sea Level Pressure  
Sea Level Pressure 29.97 in    
Wind  
Wind Speed 9 mph (East)    
Max Wind Speed 20 mph    
Max Gust Speed 24 mph    
Visibility 10 miles    
Events Rain    
T = Trace of Precipitation, MM = Missing Value Source: NWS Daily Summary

Daily Weather History Graph

Daily Weather History Graph

Search for Another Location

Airport or City:

Trip Planner

Search our weather history database for the weather conditions in past years. The results will help you decide how hot, cold, wet, or windy it might be!

Date:

Astronomy

Sep. 18, 2012 Rise Set
Actual Time 6:08 AM AST 6:19 PM AST
Civil Twilight 5:46 AM AST 6:40 PM AST
Nautical Twilight 5:21 AM AST 7:06 PM AST
Astronomical Twilight 4:55 AM AST 7:31 PM AST
Moon 8:29 AM AST (9/18) 8:16 PM AST (9/18)
Length of Visible Light 12h 54m
Length of Day
12h 10m
Waxing Crescent, 9% of the Moon is Illuminated
Sep 18
Waxing Crescent
Sep 22
First Quarter
Sep 29
Full
Oct 8
Last Quarter
Oct 15
New

Hourly Weather History & Observations

Time (AST) Temp. Heat Index Dew Point Humidity Pressure Visibility Wind Dir Wind Speed Gust Speed Precip Events Conditions
12:53 AM 82.9 °F 93.8 °F 79.0 °F 88% 29.96 in 10.0 mi East 10.4 mph - N/A   Partly Cloudy
1:53 AM 82.9 °F 93.8 °F 79.0 °F 88% 29.94 in 10.0 mi East 8.1 mph - N/A   Clear
2:53 AM 82.0 °F 91.6 °F 79.0 °F 90% 29.94 in 10.0 mi ESE 6.9 mph - N/A   Clear
3:53 AM 80.1 °F 86.4 °F 78.1 °F 94% 29.93 in 10.0 mi ENE 3.5 mph - N/A   Clear
4:53 AM 82.0 °F 91.6 °F 79.0 °F 90% 29.93 in 10.0 mi East 8.1 mph - N/A   Clear
5:53 AM 82.0 °F 92.8 °F 80.1 °F 94% 29.96 in 10.0 mi ESE 5.8 mph - N/A   Clear
6:53 AM 82.0 °F 91.6 °F 79.0 °F 90% 29.97 in 10.0 mi ESE 8.1 mph - N/A   Clear
7:53 AM 81.0 °F 88.6 °F 78.1 °F 91% 29.99 in 10.0 mi East 10.4 mph 19.6 mph 0.01 in Rain Light Rain
8:53 AM 86.0 °F 100.8 °F 80.1 °F 82% 30.00 in 10.0 mi ESE 8.1 mph - 0.00 in   Clear
9:53 AM 87.1 °F 101.5 °F 79.0 °F 77% 30.02 in 10.0 mi ESE 8.1 mph - N/A   Partly Cloudy
10:53 AM 84.0 °F 96.0 °F 79.0 °F 85% 30.03 in 10.0 mi SE 10.4 mph - N/A   Clear
11:53 AM 84.9 °F 97.5 °F 79.0 °F 82% 30.01 in 10.0 mi East 12.7 mph - N/A   Partly Cloudy
12:53 PM 86.0 °F 98.3 °F 78.1 °F 77% 29.99 in 10.0 mi East 11.5 mph - N/A   Clear
1:53 PM 87.1 °F 101.5 °F 79.0 °F 77% 29.98 in 10.0 mi ESE 15.0 mph 20.7 mph N/A   Clear
2:53 PM 88.0 °F 101.3 °F 78.1 °F 72% 29.96 in 10.0 mi ESE 12.7 mph - N/A   Scattered Clouds
3:53 PM 86.0 °F 98.3 °F 78.1 °F 77% 29.95 in 10.0 mi ESE 8.1 mph - 0.00 in   Scattered Clouds
4:30 PM 86.0 °F 99.3 °F 78.8 °F 79% 29.95 in 10.0 mi East 11.5 mph - N/A   Mostly Cloudy
4:45 PM 86.0 °F 99.3 °F 78.8 °F 79% 29.95 in 10.0 mi East 9.2 mph - N/A   Scattered Clouds
4:53 PM 84.9 °F 97.5 °F 79.0 °F 82% 29.96 in 10.0 mi East 8.1 mph - N/A   Scattered Clouds
5:53 PM 84.9 °F 96.6 °F 78.1 °F 80% 29.97 in 10.0 mi East 6.9 mph - N/A   Partly Cloudy
6:53 PM 82.0 °F 91.6 °F 79.0 °F 90% 29.98 in 10.0 mi East 11.5 mph - 0.00 in Rain Light Rain
7:53 PM 81.0 °F 89.2 °F 79.0 °F 94% 29.97 in 10.0 mi East 9.2 mph - 0.02 in   Overcast
8:53 PM 82.0 °F 92.8 °F 80.1 °F 94% 29.98 in 10.0 mi East 11.5 mph - N/A   Clear
9:53 PM 81.0 °F 90.6 °F 81.0 °F 100% 29.99 in 10.0 mi East 6.9 mph - N/A   Clear
10:53 PM 81.0 °F 89.9 °F 80.1 °F 97% 29.98 in 10.0 mi East 8.1 mph - N/A   Clear
11:53 PM 82.0 °F 92.8 °F 80.1 °F 94% 29.99 in 10.0 mi East 6.9 mph - N/A   Clear